Location: Unspecified
(0.0000°N, 0.0000°E)
Time: 05:16:33
(UTC+00:00)

Hubble Space Telescope - Pass Details

Date: 03 February 2019
Orbit: 537 x 540 km, 28.5° (Epoch: 21 February)

Event Time Altitude Azimuth Distance (km) Brightness Sun altitude
Exits shadow 04:51:14 53° 314° (NW) 660 0.8 -19.7°
Maximum altitude 04:52:08 80° 30° (NNE) 544 0.7 -19.5°
Drops below altitude 10° 04:56:16 10° 117° (ESE) 1,783 4.6 -18.5°
Sets 04:58:32 0° 118° (ESE) 2,675 5.9 -18.0°
